GW6440 Weather Reports


time (UTC)temp
C
wind
direction
speed
KPH
gust
KPH
rain 1hr
cm
rain 24hr
cm
rain mn
cm
humidity
%
barometer
mb
20260510164527 27 359 3.2 9.7 0.00 3.10 0.00 69 1016.3
20260510163008 26 1 4.8 9.7 0.00 3.20 0.00 72 1016.5
20260510161512 25 340 4.8 11.3 0.00 3.25 0.00 75 1016.5
20260510160018 26 47 4.8 8.0 0.00 3.35 0.00 73 1016.5
20260510154524 25 68 3.2 11.3 0.00 3.43 0.00 79 1016.3
20260510153027 25 72 1.6 8.0 0.00 3.56 0.00 82 1016.3
20260510151507 23 20 4.8 12.9 0.00 3.76 0.00 84 1016.3
20260510150016 23 118 1.6 11.3 0.00 3.91 0.00 89 1016.5
20260510144524 21 25 4.8 9.7 0.00 4.17 0.00 93 1016.6
20260510143029 21 31 1.6 4.8 0.00 4.37 0.00 95 1016.8
20260510141528 20 1 3.2 9.7 0.00 4.52 0.00 96 1016.7
20260510140009 20 28 3.2 12.9 0.00 4.55 0.00 97 1016.6
20260510134521 20 13 4.8 12.9 0.00 4.60 0.00 97 1016.4
20260510133022 20 6 4.8 9.7 0.00 4.72 0.00 97 1016.2
20260510131526 19 1 1.6 9.7 0.00 4.90 0.00 97 1016.0
20260510130028 19 44 1.6 8.0 0.00 5.64 0.00 97 1016.1
20260510124516 18 48 6.4 9.7 0.00 7.77 0.00 97 1015.7
20260510123019 18 2 3.2 9.7 0.00 7.87 0.00 97 1015.6
20260510121525 18 22 1.6 6.4 0.00 7.87 0.00 97 1015.5
20260510120025 18 48 3.2 4.8 0.00 7.87 0.00 97 1015.3
20260510114526 18 51 1.6 4.8 0.00 7.87 0.00 97 1014.9
20260510113018 18 44 1.6 6.4 0.00 7.87 0.00 97 1014.4
20260510111521 18 8 4.8 9.7 0.00 7.87 0.00 97 1013.9
20260510110033 18 58 3.2 4.8 0.00 7.87 0.00 97 1013.7
20260510104525 18 60 4.8 6.4 0.00 7.87 0.00 97 1013.6
20260510103029 18 352 3.2 6.4 0.00 7.87 0.00 97 1013.3
20260510101519 18 46 3.2 8.0 0.00 7.87 0.00 97 1013.2
20260510100005 18 34 4.8 9.7 0.00 7.87 0.00 97 1013.0
20260510094507 18 36 3.2 6.4 0.00 7.87 0.00 97 1012.9
20260510093014 18 22 6.4 12.9 0.00 7.87 0.00 97 1012.8
20260510091517 18 13 4.8 9.7 0.00 7.90 0.00 97 1012.8
20260510090038 18 4 1.6 8.0 0.00 8.28 0.00 97 1012.8
20260510084505 18 15 3.2 6.4 0.00 9.65 0.00 97 1012.8
20260510083012 18 23 3.2 4.8 0.00 10.41 0.00 97 1012.7
20260510081514 18 29 1.6 4.8 0.00 10.41 0.00 97 1012.5
20260510080017 18 36 3.2 4.8 0.00 10.41 0.00 97 1012.5
20260510074522 18 43 1.6 6.4 0.00 10.41 0.00 97 1012.5
20260510073004 18 352 1.6 8.0 0.00 10.41 0.00 97 1012.3
20260510071512 19 37 3.2 6.4 0.00 10.41 0.00 97 1012.1
20260510070016 19 20 1.6 6.4 0.00 10.41 0.00 97 1012.4
20260510064520 19 345 3.2 8.0 0.00 10.41 0.00 97 1012.6
20260510063026 19 342 1.6 4.8 0.00 10.41 0.00 97 1012.5
20260510061507 19 23 3.2 6.4 0.00 10.41 0.00 97 1012.6
20260510060012 19 42 3.2 8.0 0.00 10.41 0.00 97 1012.7
20260510054521 19 349 0.0 1.6 0.00 10.41 0.00 97 1012.5
20260510053021 19 349 0.0 3.2 0.00 10.64 0.00 97 1012.7
20260510051526 19 30 0.0 1.6 0.00 10.64 0.00 97 1012.8
20260510050010 19 30 1.6 4.8 0.00 10.64 0.00 97 1012.6
20260510044515 19 265 0.0 3.2 0.00 10.64 10.64 97 1012.5
20260510043021 19 252 0.0 1.6 0.00 10.64 10.64 97 1012.5
20260510041524 19 333 0.0 1.6 0.03 10.64 10.64 97 1012.5
20260510040028 20 331 0.0 1.6 0.03 10.64 10.64 97 1012.5
20260510034514 20 37 0.0 3.2 0.03 10.64 10.64 97 1013.1
20260510033018 20 34 0.0 1.6 0.03 10.64 10.64 97 1013.5
20260510031525 20 231 0.0 1.6 0.00 10.59 10.59 97 1013.3
20260510030035 20 230 0.0 1.6 0.00 10.64 10.59 97 1012.8
20260510024528 20 230 0.0 1.6 0.00 10.64 10.59 97 1013.0
20260510023014 20 231 0.0 1.6 0.03 10.64 10.59 97 1013.1
20260510021522 20 8 1.6 4.8 0.08 10.64 10.59 97 1013.1
20260510020027 20 257 1.6 6.4 0.15 10.64 10.59 97 1012.3
20260510014504 20 294 1.6 6.4 0.18 10.64 10.59 97 1011.8
20260510013008 20 110 1.6 4.8 0.15 10.59 10.59 97 1011.7
20260510011517 20 30 0.0 1.6 0.10 10.57 10.54 97 1012.0
20260510010022 20 289 0.0 3.2 0.03 10.49 10.46 97 1012.6
20260510004527 20 281 0.0 3.2 0.00 10.46 10.44 97 1011.7
20260510003020 20 280 1.6 3.2 0.03 10.46 10.44 97 1011.9
20260510001514 20 262 1.6 3.2 0.05 10.46 10.44 96 1011.9
20260510000017 20 245 0.0 3.2 0.05 10.46 10.44 96 1011.8
20260509234524 20 356 0.0 3.2 0.08 10.46 10.44 96 1012.1
20260509233027 20 333 0.0 1.6 0.08 10.46 10.41 96 1012.4
20260509231511 20 333 0.0 1.6 0.05 10.46 10.39 96 1012.2
20260509230018 20 348 0.0 1.6 0.10 10.52 10.39 96 1012.0
20260509224524 20 216 0.0 3.2 0.10 10.59 10.36 96 1011.2
20260509223023 20 250 0.0 1.6 0.08 10.57 10.34 96 1011.2
20260509221530 20 250 0.0 4.8 0.08 10.57 10.34 96 1011.4
20260509220014 20 186 0.0 1.6 0.03 10.54 10.29 96 1011.7
20260509214519 20 240 0.0 3.2 0.00 10.52 10.26 96 1011.6
20260509213022 20 295 0.0 3.2 0.00 10.57 10.26 96 1011.6
20260509211534 20 248 1.6 8.0 0.03 10.64 10.26 96 1010.4
20260509210030 20 143 1.6 4.8 0.10 10.69 10.26 96 1010.4
20260509204517 20 236 0.0 8.0 0.18 10.69 10.26 96 1010.6
20260509203024 20 30 0.0 3.2 0.33 10.69 10.26 97 1011.0
20260509201525 20 281 0.0 1.6 0.48 10.74 10.24 97 1012.2
20260509200027 19 260 0.0 3.2 0.56 10.85 10.16 97 1012.3
20260509194530 19 231 1.6 6.4 0.58 10.82 10.08 96 1011.9
20260509193016 19 219 1.6 4.8 0.61 10.69 9.93 97 1011.8
20260509191521 19 214 1.6 3.2 0.56 10.52 9.75 97 1012.8
20260509190024 19 250 1.6 4.8 0.56 10.36 9.60 97 1012.6
20260509184532 19 289 1.6 3.2 0.61 10.26 9.50 97 1012.5
20260509183029 18 317 0.0 6.4 0.53 10.08 9.32 97 1012.8
20260509181519 18 310 1.6 4.8 0.81 9.96 9.19 97 1011.8
20260509180023 18 269 1.6 8.0 0.94 9.80 9.04 96 1012.0
20260509174507 18 293 3.2 12.9 1.32 9.65 8.89 96 1012.4
20260509173012 18 248 3.2 9.7 1.32 9.55 8.79 96 1012.6
20260509171517 18 276 1.6 8.0 0.99 9.14 8.38 96 1013.1
20260509170020 18 244 1.6 4.8 0.81 8.86 8.10 96 1013.1